STARLINK-11129, 60038

Orbit data source: Space-Track

STARLINK-11129, 60038 is a payload satellite owned by SpaceX/Seattle (US) in LEO that was launched on Sat, 08 Jun 2024 UTC via an FALCON 9 launch vehicle from the Air Force Western Test Range (AFWTR). Payload-class satellites include a variety of spacecraft equipped with specific instruments for various scientific and technological missions. These include communications satellites like Starlink; space stations such as the ISS; scientific satellites like the Hubble; Earth observation satellites from companies like Planet Labs, Umbra, and HawkEye 360; GPS; miniature CubeSats for education and research; and military/defense satellites.

Loading next visibility...
Identifier
60038, 2024-112A
Orbit
LEO
Country
Flag of USUS
Related business
Manufacturer
SpaceX/Seattle
Mission
Operational Commercial Communications
Bus & Motor
STARLINK V2MD, Unknown motor
Mass
960 kg wet, ~910 kg dry
Launch date (UTC)
2024-06-08 (2 years ago)
Launch vehicle
FALCON 9
Launch site
Air Force Western Test Range (AFWTR)
Object type
Payload
Rocket body
Debris
Shape & HBR
Box + 2 Pan, 18.1 m
Radar Cross Section
36.964 m², Large (>1 m²)

Expand to show TLE details & history
Last TLE update: 2 days ago

TLE from 2 days ago
0 STARLINK-11129
1 60038U 24112A   26170.16024096 -.00000648  00000-0 -49079-6 0  9996
2 60038  53.1585 126.3849 0001236  92.5016 267.6143 15.69692668116919
Epoch: 2026-06-19T03:50Z
TLE epoch observation values (Epoch: 2026-06-19T03:50:44.818Z)
Latitude
-0.00008°
Longitude
161.3049°
Altitude
360.726 km
Speed
7.694 km/s
True Right ascension
08h 25m 32s
True Declination
0° 00' 00"
Sunlit
Object was in daylight at epoch
Visualization orbit readout
Latitude
Unknown
Longitude
Unknown
Altitude
Unknown
Speed
Unknown
Apparent Right ascension
Unknown
Apparent Declination
Unknown
Sunlit
N/A
Visualization observer readout
Local Sidereal Time
08:33:47
Azimuth
Unknown
Elevation
Unknown
Doppler factor
Unknown
Orbital elements
Apogee altitude
360.87 km
Perigee altitude
359.204 km
Semi-major axis
6,738.174 km
Eccentricity
0.00012
Inclination
53.1585°
RAAN
126.3849°
Arg. of periapsis
92.5016°
True anomaly
267.60015°
Mean anomaly
267.6143°
Eccentric anomaly
267.60722°
Mean motion
3.92401 °/min
Orbital period
91.74 mins
BSTAR
-4.9079e-7
Loading maneuver chart data...
Computing Atmospheric mass density...
Loading historical data...
Loading historical data...
Loading historical data...
Loading historical data...
Loading historical data...
Loading historical data...
Loading historical data...

Documentation

Showing up to 5 results
|